Change the Weather History Date:

Monday, December 19, 2011

  Actual Average Record
Temperature  
Mean Temperature 26 °F 24 °F  
Max Temperature 36 °F 36 °F 59 °F (2004)
Min Temperature 16 °F 12 °F -17 °F (1990)
Degree Days  
Heating Degree Days 39 41  
Month to date heating degree days 748 752  
Since 1 July heating degree days 2290 2427  
Cooling Degree Days 0 0  
Month to date cooling degree days 0 0  
Year to date cooling degree days 699 636  
Moisture  
Dew Point 19 °F    
Average Humidity 65    
Maximum Humidity 85    
Minimum Humidity 44    
Precipitation  
Precipitation 0.00 in 0.02 in 0.30 in (2013)
Month to date precipitation 0.09 0.25  
Year to date precipitation 19.22 16.12  
Snow  
Snow 0.00 in 0.20 in 5.50 in (2013)
Month to date snowfall 2.1 3.4  
Since 1 July snowfall 16.7 11.2  
Snow Depth 0.00 in    
Sea Level Pressure  
Sea Level Pressure 30.27 in    
Wind  
Wind Speed 10 mph (North)    
Max Wind Speed 25 mph    
Max Gust Speed 30 mph    
Visibility 10 miles    
Events      
T = Trace of Precipitation, MM = Missing Value Source: NWS Daily Summary

Daily Weather History Graph

Daily Weather History Graph

Search for Another Location

Airport or City:

Trip Planner

Search our weather history database for the weather conditions in past years. The results will help you decide how hot, cold, wet, or windy it might be!

Date:

Astronomy

Dec. 19, 2011 Rise Set
Actual Time 7:22 AM MST 4:15 PM MST
Civil Twilight 6:49 AM MST 4:49 PM MST
Nautical Twilight 6:12 AM MST 5:25 PM MST
Astronomical Twilight 5:37 AM MST 6:00 PM MST
Moon 1:27 AM MST (12/19) 12:22 PM MST (12/19)
Length of Visible Light 9h 59m
Length of Day
8h 53m
Waning Crescent, 30% of the Moon is Illuminated
Dec 19
Waning Crescent
Dec 24
New
Dec 31
First Quarter
Jan 9
Full
Jan 16
Last Quarter

Hourly Weather History & Observations

Time (MST) Temp. Windchill Dew Point Humidity Pressure Visibility Wind Dir Wind Speed Gust Speed Precip Events Conditions
12:52 AM 32.0 °F 20.8 °F 27.0 °F 82% 30.13 in 10.0 mi NNW 17.3 mph 24.2 mph N/A   Overcast
1:19 AM 32.0 °F 20.8 °F 26.6 °F 80% 30.10 in 10.0 mi NNW 17.3 mph - N/A   Overcast
1:52 AM 32.0 °F 22.1 °F 26.6 °F 80% 30.12 in 10.0 mi NNW 13.8 mph - N/A   Overcast
2:40 AM 28.4 °F 18.0 °F 24.8 °F 86% 30.14 in 10.0 mi NNW 12.7 mph - N/A   Scattered Clouds
2:52 AM 28.9 °F 18.6 °F 25.0 °F 85% 30.18 in 10.0 mi North 12.7 mph - N/A   Partly Cloudy
3:52 AM 28.9 °F 14.8 °F 23.0 °F 78% 30.21 in 10.0 mi North 24.2 mph 29.9 mph N/A   Clear
4:52 AM 28.4 °F 16.2 °F 23.0 °F 80% 30.17 in 10.0 mi North 17.3 mph - N/A   Overcast
5:52 AM 28.9 °F 17.3 °F 24.1 °F 82% 30.27 in 10.0 mi North 16.1 mph - N/A   Overcast
6:52 AM 28.0 °F 15.7 °F 23.0 °F 81% 30.32 in 10.0 mi North 17.3 mph - N/A   Overcast
7:52 AM 28.0 °F 18.6 °F 23.0 °F 81% 30.35 in 10.0 mi North 10.4 mph - N/A   Overcast
8:52 AM 28.9 °F 19.8 °F 23.0 °F 78% 30.37 in 10.0 mi North 10.4 mph - N/A   Overcast
9:52 AM 30.9 °F 21.7 °F 24.1 °F 76% 30.38 in 10.0 mi North 11.5 mph - N/A   Mostly Cloudy
10:52 AM 32.0 °F 24.2 °F 19.9 °F 61% 30.39 in 10.0 mi North 9.2 mph - N/A   Mostly Cloudy
11:52 AM 33.8 °F 28.6 °F 17.6 °F 52% 30.27 in 10.0 mi North 5.8 mph - N/A   Clear
12:52 PM 35.1 °F 27.4 °F 15.1 °F 44% 30.32 in 10.0 mi North 10.4 mph - N/A   Clear
1:52 PM 36.0 °F 29.0 °F 15.1 °F 43% 30.28 in 10.0 mi North 9.2 mph - N/A   Clear
2:52 PM 34.0 °F 28.8 °F 15.1 °F 46% 30.30 in 10.0 mi NE 5.8 mph - N/A   Clear
3:52 PM 30.9 °F 26.2 °F 14.0 °F 50% 30.32 in 10.0 mi East 4.6 mph - N/A   Clear
4:52 PM 26.1 °F 20.5 °F 14.0 °F 60% 30.33 in 10.0 mi SSE 4.6 mph - N/A   Clear
5:52 PM 21.9 °F - 12.9 °F 68% 30.33 in 10.0 mi Calm Calm - N/A   Clear
6:52 PM 19.9 °F 12.1 °F 12.9 °F 74% 30.35 in 10.0 mi South 5.8 mph - N/A   Clear
7:52 PM 19.9 °F 11.1 °F 12.9 °F 74% 30.32 in 10.0 mi SSE 6.9 mph - N/A   Clear
8:52 PM 19.9 °F 11.1 °F 12.9 °F 74% 30.29 in 10.0 mi SSE 6.9 mph - N/A   Clear
9:52 PM 18.0 °F 9.8 °F 12.9 °F 81% 30.25 in 10.0 mi SE 5.8 mph - N/A   Clear
10:52 PM 17.1 °F 11.7 °F 12.9 °F 84% 30.23 in 10.0 mi ESE 3.5 mph - N/A   Clear
11:52 PM 18.0 °F - 15.1 °F 88% 30.20 in 10.0 mi Calm Calm - N/A   Clear